Location: Asbacherhof
(48.8543°N, 10.7903°E)
Time: 16:08:12
(UTC+00:00)

Cosmos 2184 Rocket - Pass Details

Date: 26 May 2022
Orbit: 958 x 1003 km, 82.9° (Epoch: 07 July)

Event Time Altitude Azimuth Distance (km) Brightness Sun altitude
Rises 01:34:32 0° 347° (NNW) 3,704 7.7 -13.3°
Reaches altitude 10° 01:37:06 10° 344° (NNW) 2,745 6.9 -13.1°
Maximum altitude 01:43:14 58° 268° (W) 1,127 4.1 -12.5°
Enters shadow 01:48:48 12° 191° (SSW) 2,528 5.6 -12.0°
